Terug naar catalogus

COSMOS 1823 DEB

ActiefLEO
NORAD 18755·DEBRIS·🇷🇺 Russia

Gelanceerd Feb 20, 1987 vanaf Plesetsk Cosmodrome

Loading…

Volgende Passages (komende 24 uur)

TLE

VersSource: Space-Track

Epoch: Sep 14, 2026, 03:47 UTC

1 18755U 87020AG  26257.15801414 -.00000052  00000-0 -25542-3 0  9999
2 18755  73.6388 313.1372 0033830  55.2959 334.1907 12.42511609756078

Volg COSMOS 1823 DEB in realtime met AllMySat

Download on the App Store